Location: Chevoux
(46.3801°N, 4.9476°E)
Time: 12:44:51
(UTC+00:00)

Courier 1B - All Passes

Search period start: 13 May 2021 00:00
Search period end: 23 May 2021 00:00
Orbit: 962 x 1209 km, 28.3° (Epoch: 12 May)

Date Brightness Start Highest point End Pass type
(mag) Time Alt. Az. Time Alt. Az. Time Alt. Az.
13 May - 02:31:50 10° S 02:34:49 13° SSE 02:37:50 10° SE visible
13 May - 04:22:33 10° SW 04:27:43 19° S 04:32:55 10° SE daylight
13 May - 06:15:52 10° SW 06:20:43 18° S 06:25:33 10° SSE daylight
14 May - 03:29:15 10° SSW 03:34:05 18° S 03:39:02 10° SE visible
14 May - 05:22:00 10° SW 05:27:06 19° S 05:32:14 10° SE daylight
14 May - 07:17:29 10° SW 07:20:00 12° SSW 07:22:31 10° S daylight
15 May - 02:36:11 10° SSW 02:40:31 16° SSE 02:44:56 10° SE visible
15 May - 04:28:18 10° SW 04:33:29 20° S 04:38:44 10° SE daylight
15 May - 06:22:40 10° SW 06:26:26 14° SSW 06:30:12 10° SSE daylight
16 May - 01:43:28 10° S 01:46:57 14° SSE 01:50:31 10° SE visible
16 May - 03:34:47 10° SW 03:39:52 19° S 03:45:02 10° SE daylight
16 May - 05:28:26 10° SW 05:32:50 16° SSW 05:37:18 10° SSE daylight
17 May - 00:51:29 10° S 00:53:28 11° SSE 00:55:27 10° SE visible
17 May - 02:41:26 10° SW 02:46:15 18° S 02:51:12 10° SE visible
17 May - 04:34:29 10° SW 04:39:14 18° S 04:44:05 10° SSE daylight
18 May - 01:48:18 10° SSW 01:52:41 17° S 01:57:12 10° SE visible
18 May - 03:40:45 10° SW 03:45:38 19° S 03:50:38 10° SE daylight
18 May - 05:35:48 10° SW 05:38:33 12° SSW 05:41:20 10° S daylight
19 May - 00:55:27 10° SSW 00:59:09 15° SSE 01:02:59 10° SE visible
19 May - 02:47:12 10° SW 02:52:03 19° S 02:57:02 10° SE visible
19 May - 04:41:16 10° SW 04:44:59 14° SSW 04:48:46 10° SSE daylight
20 May - 00:03:02 10° S 00:05:41 12° SSE 00:08:22 10° SE visible
20 May - 01:53:49 10° SW 01:58:28 18° S 02:03:16 10° SE visible
20 May - 03:47:12 10° SW 03:51:25 16° SSW 03:55:43 10° SSE daylight
21 May - 01:00:38 10° SSW 01:04:56 17° S 01:09:23 10° SE visible
21 May - 02:53:24 10° SW 02:57:50 17° S 03:02:24 10° SSE visible
22 May - 00:07:39 10° SSW 00:11:25 15° SSE 00:15:19 10° SE visible
22 May - 01:59:49 10° SW 02:04:17 18° S 02:08:54 10° SE visible
22 May - 03:54:38 10° SW 03:57:10 12° SSW 03:59:43 10° S daylight
22 May - 23:15:00 10° S 23:17:58 13° SSE 23:20:59 10° SE night (unlit)
